QPF
0.00 0.01 0.02 0.03 0.02 0.02 0.03 0.02 0.02 0.03 0.03 0.05 0.05 0.05 0.04 0.04 0.03 0.02 0.02 0.03 0.03 0.04 0.04 0.04 0.05 0.05 0.04 0.04 0.04 0.04 0.04 0.04 0.05 0.06 0.05 0.05 0.06 0.06 0.05 0.04 0.03 0.04 0.05
0.00 0.01 0.01 0.01 0.01 0.02 0.02 0.02 0.01 0.02 0.03 0.06 0.07 0.05 0.04 0.05 0.04 0.02 0.02 0.02 0.02 0.02 0.03 0.04 0.04 0.04 0.04 0.05 0.05 0.04 0.03 0.03 0.03 0.04 0.05 0.04 0.04 0.04 0.03 0.03 0.03 0.04 0.06
0.01 0.00 0.01 0.01 0.01 0.01 0.01 0.02 0.01 0.02 0.04 0.08 0.10 0.07 0.04 0.04 0.04 0.03 0.02 0.02 0.02 0.02 0.02 0.02 0.03 0.04 0.04 0.04 0.04 0.04 0.03 0.04 0.03 0.03 0.04 0.04 0.04 0.03 0.03 0.03 0.03 0.03 0.04
0.01 0.00 0.01 0.01 0.01 0.00 0.01 0.02 0.03 0.07 0.07 0.06 0.09 0.09 0.07 0.04 0.02 0.02 0.03 0.02 0.02 0.03 0.03 0.03 0.04 0.04 0.03 0.04 0.03 0.03 0.03 0.03 0.03 0.03 0.03 0.04 0.04 0.03 0.04 0.04 0.03 0.02 0.03
0.00 0.00 0.00 0.00 0.01 0.02 0.02 0.04 0.05 0.08 0.08 0.07 0.07 0.07 0.05 0.03 0.01 0.02 0.02 0.02 0.03 0.03 0.02 0.02 0.02 0.03 0.03 0.04 0.04 0.04 0.04 0.03 0.03 0.04 0.04 0.05 0.05 0.04 0.03 0.03 0.03 0.02 0.03
0.00 0.00 0.01 0.01 0.02 0.04 0.05 0.06 0.08 0.11 0.10 0.07 0.06 0.05 0.03 0.02 0.01 0.01 0.02 0.02 0.02 0.03 0.03 0.02 0.03 0.02 0.03 0.04 0.05 0.05 0.04 0.04 0.04 0.04 0.04 0.06 0.05 0.04 0.03 0.02 0.02 0.03 0.03
0.00 0.00 0.01 0.02 0.04 0.06 0.10 0.12 0.11 0.10 0.09 0.07 0.04 0.03 0.02 0.01 0.01 0.02 0.02 0.02 0.02 0.02 0.02 0.02 0.02 0.02 0.03 0.03 0.04 0.05 0.05 0.03 0.04 0.05 0.05 0.05 0.05 0.04 0.03 0.03 0.02 0.02 0.02
0.01 0.01 0.01 0.02 0.05 0.08 0.10 0.09 0.06 0.05 0.04 0.04 0.03 0.02 0.02 0.01 0.01 0.01 0.01 0.02 0.02 0.02 0.02 0.02 0.02 0.02 0.01 0.02 0.03 0.04 0.04 0.03 0.03 0.04 0.06 0.05 0.04 0.04 0.04 0.03 0.02 0.02 0.01
0.01 0.01 0.02 0.02 0.05 0.05 0.04 0.04 0.04 0.03 0.02 0.03 0.02 0.02 0.01 0.01 0.01 0.01 0.01 0.02 0.02 0.02 0.02 0.02 0.02 0.02 0.02 0.01 0.02 0.03 0.03 0.04 0.03 0.05 0.07 0.05 0.05 0.04 0.04 0.04 0.03 0.03 0.03
0.01 0.02 0.02 0.03 0.04 0.04 0.04 0.05 0.05 0.03 0.03 0.03 0.03 0.02 0.02 0.01 0.02 0.01 0.01 0.01 0.02 0.02 0.02 0.02 0.02 0.02 0.02 0.02 0.02 0.03 0.03 0.04 0.05 0.05 0.06 0.05 0.04 0.03 0.04 0.05 0.05 0.04 0.04
0.02 0.02 0.03 0.03 0.03 0.04 0.04 0.03 0.02 0.02 0.02 0.02 0.03 0.03 0.02 0.02 0.03 0.03 0.01 0.02 0.02 0.03 0.02 0.02 0.02 0.02 0.02 0.02 0.02 0.03 0.04 0.05 0.05 0.05 0.04 0.04 0.04 0.04 0.05 0.05 0.05 0.06 0.05
0.01 0.01 0.01 0.02 0.02 0.03 0.02 0.02 0.02 0.02 0.02 0.02 0.03 0.03 0.03 0.04 0.03 0.03 0.02 0.03 0.04 0.03 0.03 0.02 0.02 0.02 0.02 0.02 0.02 0.02 0.02 0.03 0.03 0.03 0.04 0.04 0.05 0.05 0.05 0.05 0.04 0.05 0.05
0.01 0.01 0.01 0.01 0.01 0.01 0.02 0.02 0.02 0.02 0.02 0.02 0.02 0.02 0.03 0.03 0.03 0.03 0.03 0.04 0.05 0.04 0.04 0.04 0.03 0.02 0.02 0.02 0.02 0.02 0.02 0.02 0.02 0.03 0.03 0.04 0.06 0.08 0.06 0.05 0.06 0.05 0.05
0.01 0.02 0.02 0.01 0.01 0.01 0.01 0.01 0.02 0.03 0.03 0.02 0.03 0.03 0.03 0.03 0.04 0.04 0.06 0.07 0.06 0.06 0.06 0.05 0.04 0.04 0.03 0.03 0.03 0.03 0.03 0.02 0.02 0.02 0.02 0.02 0.03 0.04 0.07 0.08 0.09 0.08 0.08
0.02 0.02 0.02 0.01 0.02 0.01 0.01 0.01 0.01 0.02 0.02 0.02 0.03 0.03 0.03 0.03 0.03 0.05 0.07 0.08 0.08 0.08 0.06 0.05 0.05 0.05 0.05 0.05 0.06 0.05 0.04 0.03 0.02 0.02 0.02 0.01 0.01 0.01 0.02 0.04 0.06 0.08 0.10
0.01 0.01 0.01 0.01 0.01 0.01 0.01 0.01 0.02 0.01 0.02 0.02 0.02 0.03 0.03 0.04 0.04 0.04 0.03 0.03 0.05 0.05 0.04 0.04 0.04 0.06 0.06 0.06 0.07 0.06 0.05 0.04 0.04 0.03 0.02 0.02 0.02 0.01 0.02 0.02 0.02 0.02 0.04
0.02 0.02 0.02 0.02 0.02 0.02 0.02 0.01 0.01 0.02 0.01 0.01 0.02 0.02 0.02 0.02 0.03 0.03 0.03 0.03 0.03 0.03 0.03 0.04 0.04 0.06 0.07 0.07 0.06 0.06 0.05 0.04 0.04 0.03 0.02 0.02 0.02 0.02 0.02 0.02 0.02 0.01 0.01
0.02 0.03 0.02 0.02 0.01 0.01 0.01 0.01 0.01 0.02 0.01 0.01 0.02 0.02 0.01 0.01 0.01 0.02 0.03 0.03 0.03 0.02 0.02 0.04 0.06 0.07 0.08 0.07 0.06 0.05 0.05 0.05 0.03 0.02 0.02 0.01 0.01 0.02 0.02 0.02 0.01 0.01 0.01
0.01 0.01 0.01 0.01 0.01 0.01 0.01 0.01 0.02 0.02 0.02 0.02 0.01 0.01 0.01 0.01 0.01 0.02 0.02 0.02 0.03 0.02 0.01 0.03 0.06 0.07 0.07 0.07 0.06 0.06 0.05 0.04 0.03 0.02 0.02 0.01 0.01 0.01 0.01 0.01 0.02 0.02 0.02
0.01 0.00 0.00 0.00 0.01 0.01 0.01 0.01 0.02 0.02 0.02 0.01 0.01 0.01 0.01 0.02 0.02 0.02 0.02 0.02 0.02 0.02 0.01 0.02 0.04 0.04 0.04 0.04 0.03 0.02 0.02 0.02 0.02 0.02 0.02 0.01 0.01 0.00 0.00 0.01 0.01 0.02 0.02
0.01 0.00 0.00 0.01 0.01 0.01 0.01 0.02 0.03 0.03 0.03 0.03 0.02 0.02 0.02 0.02 0.02 0.02 0.02 0.02 0.02 0.02 0.02 0.02 0.03 0.04 0.02 0.01 0.01 0.01 0.01 0.01 0.01 0.01 0.02 0.02 0.01 0.00 0.00 0.01 0.01 0.02 0.02
0.00 0.00 0.00 0.01 0.01 0.01 0.02 0.02 0.03 0.04 0.03 0.03 0.02 0.02 0.01 0.01 0.01 0.01 0.01 0.02 0.02 0.03 0.03 0.02 0.02 0.01 0.01 0.00 0.00 0.00 0.00 0.01 0.01 0.01 0.01 0.01 0.01 0.01 0.01 0.00 0.00 0.01 0.01
0.01 0.01 0.00 0.00 0.01 0.01 0.02 0.02 0.02 0.02 0.03 0.03 0.02 0.02 0.02 0.02 0.01 0.02 0.01 0.02 0.02 0.02 0.02 0.02 0.01 0.01 0.01 0.00 0.00 0.00 0.00 0.00 0.01 0.01 0.01 0.01 0.01 0.01 0.01 0.01 0.00 0.01 0.02
0.01 0.01 0.00 0.00 0.00 0.00 0.01 0.01 0.02 0.02 0.03 0.03 0.03 0.04 0.03 0.03 0.03 0.02 0.02 0.02 0.02 0.02 0.02 0.02 0.01 0.01 0.01 0.00 0.00 0.00 0.00 0.00 0.00 0.01 0.01 0.01 0.01 0.02 0.01 0.01 0.01 0.02 0.03
0.01 0.01 0.01 0.01 0.01 0.01 0.01 0.01 0.02 0.03 0.03 0.04 0.05 0.05 0.04 0.03 0.03 0.02 0.02 0.01 0.01 0.01 0.01 0.01 0.01 0.00 0.00 0.00 0.00 0.00 0.00 0.00 0.00 0.00 0.01 0.01 0.01 0.03 0.03 0.02 0.02 0.03 0.03
0.01 0.01 0.01 0.01 0.01 0.01 0.01 0.01 0.02 0.03 0.04 0.05 0.06 0.07 0.07 0.05 0.03 0.03 0.02 0.01 0.01 0.01 0.00 0.00 0.00 0.00 0.00 0.00 0.00 0.00 0.00 0.00 0.00 0.00 0.01 0.01 0.01 0.02 0.03 0.03 0.04 0.04 0.03
MSLP
1005.22 1005.75 1006.35 1007.00 1007.66 1008.32 1008.96 1009.59 1010.20 1010.79 1011.36 1011.89 1012.37 1012.79 1013.13 1013.42 1013.63 1013.80 1013.93 1014.03 1014.11 1014.17 1014.22 1014.24 1014.23 1014.20 1014.14 1014.05 1013.93 1013.80 1013.65 1013.50 1013.33 1013.16 1012.97 1012.76 1012.54 1012.31 1012.07 1011.84 1011.61 1011.41 1011.23
1004.60 1005.19 1005.85 1006.54 1007.24 1007.93 1008.60 1009.25 1009.88 1010.50 1011.10 1011.66 1012.17 1012.61 1012.97 1013.25 1013.46 1013.61 1013.72 1013.81 1013.89 1013.96 1014.03 1014.09 1014.13 1014.14 1014.12 1014.06 1013.96 1013.83 1013.68 1013.52 1013.34 1013.15 1012.96 1012.75 1012.52 1012.28 1012.02 1011.75 1011.48 1011.22 1010.97
1003.78 1004.42 1005.15 1005.91 1006.67 1007.41 1008.12 1008.80 1009.47 1010.12 1010.75 1011.34 1011.87 1012.33 1012.71 1013.00 1013.20 1013.34 1013.44 1013.52 1013.59 1013.68 1013.77 1013.87 1013.95 1014.02 1014.04 1014.02 1013.95 1013.85 1013.71 1013.54 1013.36 1013.18 1012.98 1012.77 1012.55 1012.30 1012.03 1011.74 1011.42 1011.11 1010.80
1002.78 1003.49 1004.30 1005.14 1005.98 1006.78 1007.55 1008.29 1008.99 1009.68 1010.34 1010.95 1011.51 1011.99 1012.39 1012.68 1012.89 1013.02 1013.11 1013.19 1013.26 1013.36 1013.47 1013.60 1013.73 1013.83 1013.91 1013.93 1013.90 1013.83 1013.71 1013.56 1013.39 1013.20 1013.01 1012.80 1012.58 1012.33 1012.06 1011.75 1011.41 1011.06 1010.70
1001.71 1002.48 1003.37 1004.31 1005.23 1006.12 1006.96 1007.75 1008.51 1009.23 1009.92 1010.56 1011.14 1011.64 1012.05 1012.35 1012.56 1012.70 1012.79 1012.86 1012.94 1013.03 1013.16 1013.31 1013.46 1013.61 1013.72 1013.78 1013.79 1013.75 1013.65 1013.52 1013.35 1013.18 1012.99 1012.78 1012.56 1012.32 1012.05 1011.74 1011.39 1011.02 1010.63
1000.68 1001.51 1002.47 1003.49 1004.51 1005.48 1006.40 1007.25 1008.06 1008.82 1009.54 1010.20 1010.80 1011.31 1011.73 1012.05 1012.27 1012.41 1012.50 1012.57 1012.64 1012.73 1012.85 1013.01 1013.17 1013.33 1013.47 1013.56 1013.60 1013.58 1013.50 1013.38 1013.22 1013.05 1012.86 1012.66 1012.44 1012.21 1011.94 1011.64 1011.30 1010.93 1010.53
999.85 1000.72 1001.73 1002.81 1003.90 1004.94 1005.93 1006.85 1007.70 1008.49 1009.23 1009.91 1010.51 1011.03 1011.46 1011.79 1012.02 1012.16 1012.25 1012.32 1012.38 1012.45 1012.56 1012.70 1012.85 1013.01 1013.15 1013.25 1013.29 1013.28 1013.22 1013.11 1012.96 1012.78 1012.59 1012.39 1012.18 1011.95 1011.70 1011.42 1011.10 1010.75 1010.38
999.36 1000.22 1001.25 1002.36 1003.49 1004.58 1005.61 1006.57 1007.45 1008.26 1009.01 1009.69 1010.30 1010.82 1011.25 1011.57 1011.80 1011.95 1012.04 1012.10 1012.14 1012.19 1012.27 1012.37 1012.50 1012.63 1012.75 1012.83 1012.88 1012.87 1012.80 1012.69 1012.54 1012.37 1012.17 1011.97 1011.76 1011.54 1011.31 1011.05 1010.77 1010.46 1010.13
999.28 1000.11 1001.11 1002.21 1003.33 1004.43 1005.47 1006.44 1007.33 1008.14 1008.88 1009.55 1010.14 1010.65 1011.07 1011.39 1011.62 1011.76 1011.84 1011.88 1011.90 1011.93 1011.96 1012.03 1012.10 1012.19 1012.28 1012.34 1012.37 1012.35 1012.28 1012.16 1012.01 1011.82 1011.63 1011.42 1011.21 1011.00 1010.78 1010.56 1010.32 1010.07 1009.80
999.67 1000.43 1001.35 1002.38 1003.45 1004.51 1005.52 1006.47 1007.34 1008.13 1008.85 1009.48 1010.04 1010.52 1010.91 1011.21 1011.42 1011.56 1011.63 1011.65 1011.65 1011.64 1011.63 1011.65 1011.68 1011.72 1011.77 1011.79 1011.79 1011.76 1011.68 1011.56 1011.40 1011.21 1011.01 1010.79 1010.58 1010.38 1010.18 1009.99 1009.79 1009.59 1009.38
1000.49 1001.14 1001.95 1002.87 1003.84 1004.81 1005.76 1006.65 1007.47 1008.21 1008.88 1009.46 1009.97 1010.40 1010.75 1011.02 1011.20 1011.32 1011.37 1011.38 1011.35 1011.32 1011.28 1011.25 1011.24 1011.24 1011.24 1011.23 1011.21 1011.15 1011.06 1010.94 1010.77 1010.58 1010.37 1010.16 1009.94 1009.74 1009.55 1009.38 1009.22 1009.07 1008.92
1001.62 1002.15 1002.81 1003.59 1004.43 1005.29 1006.14 1006.95 1007.69 1008.37 1008.96 1009.48 1009.92 1010.29 1010.58 1010.80 1010.95 1011.03 1011.06 1011.05 1011.01 1010.96 1010.90 1010.84 1010.79 1010.76 1010.73 1010.69 1010.64 1010.57 1010.47 1010.34 1010.17 1009.98 1009.77 1009.55 1009.34 1009.13 1008.95 1008.79 1008.65 1008.54 1008.44
1002.92 1003.32 1003.84 1004.46 1005.15 1005.88 1006.62 1007.32 1007.98 1008.57 1009.09 1009.53 1009.89 1010.18 1010.40 1010.55 1010.66 1010.71 1010.72 1010.69 1010.64 1010.57 1010.50 1010.42 1010.36 1010.30 1010.24 1010.18 1010.11 1010.03 1009.92 1009.78 1009.61 1009.42 1009.21 1008.99 1008.77 1008.57 1008.38 1008.23 1008.11 1008.01 1007.95
1004.24 1004.53 1004.91 1005.38 1005.93 1006.52 1007.14 1007.75 1008.31 1008.82 1009.25 1009.60 1009.87 1010.08 1010.22 1010.31 1010.36 1010.37 1010.35 1010.31 1010.25 1010.18 1010.10 1010.02 1009.94 1009.85 1009.77 1009.69 1009.60 1009.49 1009.37 1009.22 1009.05 1008.86 1008.65 1008.43 1008.22 1008.02 1007.84 1007.69 1007.57 1007.49 1007.44
1005.44 1005.64 1005.91 1006.26 1006.68 1007.16 1007.67 1008.18 1008.66 1009.08 1009.43 1009.69 1009.88 1010.00 1010.07 1010.09 1010.07 1010.04 1009.99 1009.94 1009.87 1009.79 1009.71 1009.62 1009.52 1009.42 1009.31 1009.20 1009.07 1008.94 1008.79 1008.62 1008.44 1008.25 1008.04 1007.84 1007.64 1007.45 1007.28 1007.13 1007.02 1006.94 1006.90
1006.44 1006.58 1006.77 1007.02 1007.35 1007.74 1008.16 1008.60 1009.00 1009.35 1009.62 1009.82 1009.93 1009.97 1009.95 1009.90 1009.83 1009.75 1009.67 1009.59 1009.51 1009.43 1009.33 1009.23 1009.11 1008.98 1008.83 1008.67 1008.50 1008.32 1008.13 1007.94 1007.74 1007.54 1007.34 1007.15 1006.96 1006.79 1006.64 1006.52 1006.42 1006.35 1006.31
1007.20 1007.32 1007.46 1007.65 1007.91 1008.24 1008.60 1008.97 1009.31 1009.60 1009.82 1009.95 1009.99 1009.96 1009.88 1009.77 1009.64 1009.51 1009.39 1009.29 1009.19 1009.08 1008.97 1008.84 1008.69 1008.52 1008.32 1008.10 1007.86 1007.62 1007.38 1007.14 1006.91 1006.70 1006.50 1006.33 1006.17 1006.04 1005.92 1005.82 1005.75 1005.69 1005.65
1007.73 1007.85 1007.98 1008.14 1008.36 1008.63 1008.95 1009.28 1009.58 1009.82 1009.99 1010.07 1010.06 1009.97 1009.84 1009.67 1009.49 1009.32 1009.16 1009.02 1008.89 1008.76 1008.62 1008.45 1008.26 1008.03 1007.76 1007.47 1007.16 1006.85 1006.54 1006.25 1005.98 1005.75 1005.56 1005.40 1005.28 1005.18 1005.11 1005.05 1005.00 1004.97 1004.94
1008.11 1008.24 1008.35 1008.50 1008.69 1008.94 1009.22 1009.51 1009.78 1009.99 1010.11 1010.15 1010.10 1009.97 1009.79 1009.57 1009.35 1009.14 1008.94 1008.76 1008.60 1008.44 1008.26 1008.06 1007.81 1007.53 1007.20 1006.84 1006.45 1006.06 1005.69 1005.33 1005.03 1004.77 1004.57 1004.42 1004.33 1004.27 1004.25 1004.23 1004.23 1004.21 1004.19
1008.40 1008.52 1008.63 1008.77 1008.94 1009.16 1009.41 1009.67 1009.90 1010.07 1010.17 1010.17 1010.09 1009.93 1009.71 1009.45 1009.19 1008.94 1008.71 1008.50 1008.30 1008.11 1007.90 1007.65 1007.37 1007.04 1006.66 1006.23 1005.79 1005.33 1004.89 1004.48 1004.13 1003.85 1003.63 1003.49 1003.42 1003.40 1003.41 1003.43 1003.46 1003.47 1003.46
1008.64 1008.76 1008.86 1008.98 1009.13 1009.32 1009.53 1009.76 1009.95 1010.09 1010.15 1010.12 1010.01 1009.81 1009.56 1009.27 1008.98 1008.70 1008.43 1008.19 1007.96 1007.74 1007.51 1007.24 1006.93 1006.57 1006.16 1005.70 1005.22 1004.72 1004.23 1003.78 1003.39 1003.08 1002.84 1002.70 1002.63 1002.62 1002.66 1002.71 1002.76 1002.79 1002.80
1008.87 1008.98 1009.06 1009.15 1009.28 1009.44 1009.62 1009.79 1009.95 1010.04 1010.07 1010.00 1009.85 1009.62 1009.34 1009.02 1008.70 1008.38 1008.08 1007.82 1007.57 1007.33 1007.08 1006.81 1006.50 1006.14 1005.73 1005.27 1004.78 1004.26 1003.76 1003.28 1002.86 1002.52 1002.26 1002.09 1002.01 1002.00 1002.04 1002.10 1002.17 1002.21 1002.22
1009.10 1009.18 1009.25 1009.32 1009.42 1009.54 1009.68 1009.81 1009.91 1009.96 1009.94 1009.83 1009.63 1009.37 1009.05 1008.70 1008.34 1007.99 1007.66 1007.37 1007.10 1006.85 1006.61 1006.35 1006.06 1005.73 1005.35 1004.92 1004.45 1003.95 1003.46 1002.98 1002.54 1002.18 1001.89 1001.69 1001.57 1001.54 1001.56 1001.61 1001.68 1001.72 1001.74
1009.32 1009.38 1009.44 1009.49 1009.57 1009.66 1009.76 1009.85 1009.89 1009.89 1009.80 1009.64 1009.40 1009.09 1008.72 1008.33 1007.92 1007.54 1007.18 1006.86 1006.57 1006.32 1006.08 1005.85 1005.60 1005.31 1004.99 1004.61 1004.20 1003.75 1003.28 1002.82 1002.38 1001.99 1001.67 1001.44 1001.28 1001.20 1001.19 1001.22 1001.27 1001.32 1001.34
1009.51 1009.58 1009.63 1009.69 1009.76 1009.83 1009.89 1009.93 1009.92 1009.85 1009.71 1009.49 1009.19 1008.82 1008.40 1007.95 1007.50 1007.07 1006.67 1006.31 1006.01 1005.75 1005.52 1005.31 1005.10 1004.87 1004.61 1004.30 1003.95 1003.56 1003.14 1002.70 1002.28 1001.88 1001.54 1001.26 1001.06 1000.93 1000.88 1000.88 1000.91 1000.95 1000.99
1009.69 1009.78 1009.85 1009.93 1010.00 1010.06 1010.09 1010.09 1010.03 1009.90 1009.70 1009.41 1009.04 1008.61 1008.13 1007.62 1007.12 1006.63 1006.18 1005.79 1005.45 1005.17 1004.94 1004.74 1004.56 1004.38 1004.18 1003.94 1003.66 1003.33 1002.96 1002.56 1002.15 1001.75 1001.38 1001.07 1000.83 1000.66 1000.57 1000.54 1000.56 1000.60 1000.66
Thickness
5773 5770 5765 5760 5754 5749 5744 5740 5736 5732 5728 5725 5721 5718 5716 5714 5712 5711 5707 5704 5702 5700 5698 5698 5694 5692 5690 5687 5686 5685 5684 5683 5683 5683 5683 5684 5684 5684 5682 5682 5682 5681 5681
5769 5765 5761 5757 5752 5746 5742 5738 5733 5730 5726 5722 5718 5715 5713 5711 5709 5707 5703 5701 5699 5697 5697 5693 5692 5689 5685 5682 5680 5679 5679 5678 5678 5677 5676 5676 5677 5677 5678 5677 5676 5676 5677
5766 5762 5758 5754 5751 5745 5741 5738 5732 5728 5724 5719 5716 5712 5709 5707 5705 5702 5701 5699 5696 5694 5692 5690 5687 5684 5683 5680 5677 5675 5673 5672 5672 5672 5670 5669 5670 5671 5672 5671 5671 5671 5671
5766 5762 5757 5752 5749 5745 5741 5735 5730 5725 5720 5717 5713 5709 5706 5703 5701 5699 5698 5696 5693 5691 5688 5686 5683 5680 5679 5676 5674 5673 5670 5667 5666 5666 5665 5664 5665 5662 5663 5665 5666 5666 5665
5765 5760 5756 5752 5749 5745 5740 5734 5727 5721 5718 5714 5711 5707 5704 5702 5700 5697 5694 5692 5690 5687 5685 5682 5679 5676 5675 5672 5670 5667 5666 5665 5663 5661 5660 5659 5658 5658 5656 5655 5657 5660 5660
5762 5759 5756 5752 5747 5743 5738 5732 5725 5719 5716 5712 5709 5704 5701 5698 5695 5693 5691 5689 5688 5684 5682 5678 5676 5673 5671 5668 5665 5663 5662 5660 5657 5657 5656 5654 5653 5653 5653 5652 5652 5653 5655
5759 5755 5752 5748 5743 5739 5735 5730 5723 5717 5714 5710 5706 5703 5699 5696 5693 5691 5689 5687 5685 5682 5678 5676 5672 5670 5667 5665 5662 5659 5658 5656 5652 5650 5651 5650 5649 5649 5648 5647 5648 5648 5651
5756 5752 5749 5745 5741 5737 5732 5727 5721 5716 5712 5708 5704 5701 5698 5696 5694 5689 5688 5685 5683 5680 5676 5672 5669 5667 5664 5662 5659 5658 5655 5652 5649 5647 5645 5645 5645 5644 5644 5642 5641 5642 5645
5751 5749 5746 5743 5740 5735 5730 5726 5720 5714 5710 5706 5702 5699 5696 5693 5691 5687 5685 5684 5680 5677 5673 5669 5666 5664 5661 5658 5655 5653 5650 5647 5646 5644 5642 5641 5641 5640 5640 5639 5638 5635 5635
5748 5746 5743 5740 5737 5733 5728 5724 5719 5713 5709 5705 5700 5698 5693 5690 5688 5686 5682 5680 5677 5673 5669 5666 5663 5660 5657 5654 5651 5649 5647 5643 5641 5639 5637 5636 5637 5637 5636 5635 5634 5634 5631
5743 5740 5738 5736 5733 5730 5726 5721 5716 5711 5707 5703 5699 5695 5691 5688 5685 5682 5680 5677 5674 5670 5666 5663 5660 5656 5653 5650 5647 5645 5642 5639 5637 5635 5634 5632 5631 5632 5632 5631 5630 5629 5628
5740 5737 5734 5731 5728 5725 5722 5717 5713 5709 5705 5701 5697 5693 5690 5686 5682 5679 5677 5674 5671 5668 5664 5660 5657 5653 5650 5647 5644 5641 5638 5635 5633 5631 5630 5629 5628 5627 5627 5626 5626 5625 5623
5733 5731 5728 5725 5722 5720 5717 5714 5710 5707 5704 5700 5695 5690 5687 5684 5680 5677 5674 5672 5668 5665 5662 5658 5654 5651 5647 5644 5641 5638 5635 5632 5630 5628 5626 5625 5624 5622 5622 5621 5622 5621 5621
5727 5725 5722 5719 5717 5715 5713 5710 5707 5704 5701 5697 5693 5688 5685 5682 5678 5675 5672 5669 5666 5663 5659 5655 5651 5648 5645 5642 5638 5635 5632 5629 5626 5625 5623 5622 5621 5619 5618 5617 5617 5616 5615
5719 5717 5715 5713 5712 5710 5708 5705 5703 5700 5697 5694 5690 5687 5683 5680 5676 5673 5670 5666 5663 5661 5656 5651 5648 5645 5642 5638 5635 5632 5629 5625 5622 5621 5620 5619 5616 5614 5612 5614 5613 5613 5612
5713 5711 5709 5707 5706 5704 5702 5701 5698 5696 5694 5691 5688 5684 5681 5677 5673 5670 5667 5664 5660 5656 5652 5648 5645 5641 5638 5631 5627 5625 5625 5622 5620 5618 5617 5616 5613 5610 5607 5607 5606 5606 5607
5707 5705 5703 5701 5699 5699 5697 5695 5694 5692 5690 5687 5684 5681 5678 5674 5671 5669 5665 5660 5656 5652 5648 5645 5642 5638 5633 5627 5623 5620 5620 5620 5618 5616 5615 5614 5613 5609 5608 5605 5603 5603 5602
5702 5699 5698 5696 5695 5694 5692 5691 5690 5688 5685 5682 5680 5678 5675 5672 5669 5665 5661 5657 5653 5649 5646 5642 5639 5635 5630 5624 5620 5617 5617 5618 5616 5615 5613 5611 5609 5608 5604 5604 5604 5605 5605
5696 5694 5693 5691 5690 5688 5687 5686 5685 5683 5681 5679 5677 5674 5672 5669 5666 5662 5658 5654 5650 5646 5643 5640 5636 5633 5627 5621 5618 5614 5616 5616 5615 5613 5612 5609 5607 5602 5599 5600 5602 5602 5603
5690 5688 5687 5686 5683 5682 5682 5680 5679 5677 5676 5675 5673 5671 5668 5665 5662 5658 5655 5652 5647 5644 5641 5637 5634 5630 5627 5620 5616 5612 5616 5616 5615 5613 5611 5605 5603 5599 5596 5598 5600 5600 5602
5682 5681 5680 5678 5677 5676 5675 5673 5673 5672 5671 5671 5669 5666 5663 5661 5658 5654 5651 5648 5645 5642 5638 5636 5632 5629 5625 5620 5615 5611 5614 5615 5614 5613 5612 5608 5600 5597 5595 5595 5597 5598 5599
5674 5673 5672 5671 5670 5669 5668 5667 5666 5667 5666 5665 5663 5661 5659 5657 5655 5650 5647 5645 5642 5639 5636 5633 5631 5629 5626 5621 5616 5612 5609 5609 5611 5611 5611 5607 5599 5596 5594 5594 5595 5595 5595
5666 5665 5665 5664 5662 5662 5661 5660 5660 5661 5660 5658 5656 5655 5654 5652 5650 5647 5644 5641 5639 5638 5636 5633 5632 5630 5628 5622 5616 5611 5609 5607 5608 5609 5605 5602 5598 5596 5596 5593 5593 5594 5598
5658 5658 5657 5656 5655 5654 5655 5654 5654 5654 5653 5652 5650 5649 5648 5647 5645 5643 5642 5640 5638 5635 5634 5633 5632 5630 5628 5624 5620 5616 5612 5607 5607 5607 5605 5600 5598 5597 5596 5596 5596 5597 5600
5651 5651 5650 5649 5648 5647 5647 5647 5647 5647 5646 5645 5645 5645 5644 5643 5640 5638 5636 5636 5633 5632 5629 5630 5629 5627 5625 5621 5615 5615 5615 5613 5610 5607 5608 5608 5607 5605 5604 5603 5601 5601 5601
5644 5643 5642 5642 5641 5641 5640 5641 5641 5641 5640 5639 5640 5641 5640 5638 5637 5635 5632 5627 5627 5624 5622 5620 5620 5622 5618 5614 5611 5609 5607 5605 5603 5604 5608 5609 5608 5608 5607 5605 5603 5602 5601